PROFILE

 METAR AND TAF INFORMATION
ADDS - METARS form results

(0241 UTC 20 February 2020)
http://aviationweather.gov/metar/data/
 
KSAN 200151Z 30005KT 10SM FEW016 16/12 A3005 RMK AO2 SLP173 T01610122
KSAN 192320Z 2000/2106 32007KT P6SM FEW016 FM200300 VRB03KT P6SM BKN009 FM201000 VRB05KT P6SM SCT010 FM201800 30007KT P6SM SKC 

 AIRPORT MAP

 RUNWAY INFORMATION
Runway 09 Runway length 9401 ft Runway width 200 ft
Runway elevation 14 ft Runway displaced threshold 700 ft Runway heading 106
Runway 27 Runway length 9401 ft Runway width 200 ft
Runway elevation 13 ft Runway displaced threshold 1810 ft Runway heading 286

 AIRPORT FREQUENCIES
Type A/D Name SOCAL APP/ Frequency 119.6 MHZ
Type ATIS Name ATIS Frequency 134.8 MHZ
Type CLD Name CLNC DEL Frequency 125.9 MHZ
Type GND Name GND Frequency 123.9 MHZ
Type MISC Name CG Frequency 157.15 MHZ
Type MISC Name CG Frequency 898.4 MHZ
Type TWR Name LINDBERGH Frequency 118.3 MHZ
Type UNIC Name UNICOM Frequency 122.95 MHZ

 AIRPORT NEAR NAVIGATION AIDS
Type NDB Name Boing Frequency 245 KHZ